Location: Newark
(52.4787°S, 179.0532°W)
Time: 10:23:05
(UTC+00:00)

Vanguard 1 - Pass Details

Date: 23 November 2019
Orbit: 652 x 3831 km, 34.3° (Epoch: 08 December)

Event Time Altitude Azimuth Distance (km) Brightness Sun altitude
Rises 12:18:50 0° 285° (WNW) 5,711 13.7 -16.8°
Reaches altitude 10° 12:22:18 10° 292° (WNW) 5,081 13.4 -16.7°
Maximum altitude 12:36:49 42° 354° (N) 4,237 12.8 -16.2°
Drops below altitude 10° 12:57:06 10° 54° (NE) 6,940 14.2 -15.4°
Sets 13:02:57 0° 60° (ENE) 7,911 14.6 -15.1°
